Flag for U.S.A. Weather past 2 weeks in Independence, Missouri, U.S.A.

Now
72 °F

Sunny.


Feels Like: 75 °F
Forecast: 49 / 75 °F
Wind: 8 mph from East

Location: Lee's Summit Municipal Airport

Current Time: Mar 31, 2015 at 1:28:51 PM

Latest Report: Mar 31, 2015 at 12:53 PM


Visibility: 10 mi

Pressure: 30.00 "Hg

Humidity: 23%

Dew point: 32 °F

Location of IndependenceLocation

Historic Weather in Independence — Graph

°F

Independence temperature yesterday

Maximum temperature yesterday: 72 °F (at 4:53 PM)
Minimum temperature yesterday: 42 °F (at 5:53 AM)
Average temperature yesterday: 57 °F

Past Weeks' High & Low Weather Summary

 TemperatureHumidityPressure
High81 °F (Mar 16, 4:53 PM)97% (Mar 18, 9:53 PM)30.37 "Hg (Mar 18, 9:53 PM)
Low32 °F (Mar 27, 7:53 AM)19% (Mar 30, 1:53 PM)29.77 "Hg (Mar 24, 4:53 PM)
Average49 °F62%30.09 "Hg
* Reported Mar 16 11:53 AM — Mar 31 11:53 AM, Independence, Weather by CustomWeather, © 2015

Note: Actual official high and low records may vary slightly from our data, if they occured in-between our weather recording intervals... More about our weather records

Advertising

Independence weather history for previous 24 hours

 ConditionsComfort  
Time TempWeatherWind HumidityBarometerVisibility
11:53 AM
Tue, Mar 31
70 °FSunny.10 mph23%30.02 "Hg10 mi
10:53 AM66 °FSunny.12 mph26%30.02 "Hg10 mi
9:53 AM62 °FSunny.10 mph32%30.01 "Hg10 mi
8:53 AM57 °FSunny.10 mph46%29.99 "Hg10 mi
7:53 AM53 °FClear.5 mph55%29.98 "Hg9 mi
6:53 AM50 °FClear.3 mph61%29.95 "Hg10 mi
5:53 AM53 °FClear.6 mph55%29.91 "Hg10 mi
4:53 AM51 °FClear.6 mph59%29.92 "Hg10 mi
3:53 AM54 °FClear.6 mph53%29.91 "Hg10 mi
2:53 AM55 °FClear.8 mph49%29.92 "Hg10 mi
1:53 AM53 °FClear.9 mph51%29.94 "Hg10 mi
12:53 AM56 °FClear.8 mph44%29.94 "Hg10 mi
11:53 PM
Mon, Mar 30
60 °FClear.8 mph36%29.94 "Hg10 mi
10:53 PM61 °FClear.12 mph34%29.95 "Hg10 mi
9:53 PM61 °FClear.10 mph35%29.96 "Hg10 mi
8:53 PM62 °FClear.9 mph34%29.98 "Hg10 mi
7:53 PM65 °FSunny.9 mph28%29.97 "Hg10 mi
6:53 PM68 °FSunny.15 mph24%29.98 "Hg10 mi
5:53 PM70 °FSunny.16 mph25%29.97 "Hg10 mi
4:53 PM72 °FSunny.13 mph22%29.98 "Hg10 mi
3:53 PM71 °FSunny.16 mph21%30.02 "Hg10 mi
2:53 PM71 °FSunny.16 mph21%30.06 "Hg10 mi
1:53 PM70 °FSunny.14 mph19%30.11 "Hg10 mi
Weather by CustomWeather, © 2015

See weather overviewHow to use our weather pages